Regional Weather Roundup
Issued by NWS

Home | Current Version | Previous Version | Text Only | Print | Product List | Glossary Off
Versions: 1 2 3 4 5 6 7 8 9 10 11 12 13 14 15 16 17 18 19 20 21 22 23 24 25 26 27 28 29 30 31 32 33 34 35 36 37 38 39 40 41 42 43 44 45 46 47 48 49 50

000
ASUS43 KIND 271659
RWRIN

WEATHER ROUNDUP FOR INDIANA
NATIONAL WEATHER SERVICE INDIANAPOLIS IN
100 PM EDT WED AUG 27 2014

NOTE: "FAIR" INDICATES FEW OR NO CLOUDS BELOW 12,000 FEET WITH NO
SIGNIFICANT WEATHER AND/OR OBSTRUCTIONS TO VISIBILITY.

* - STATION DOES NOT REPORT WEATHER SUCH AS PRECIPITATION OR FOG.

+ - STATION NOT QUALITY CONTROLLED BY THE NATIONAL WEATHER SERVICE.
    USE DATA WITH CAUTION...ESPECIALLY DEWPOINT AND RELATIVE
    HUMIDITY OBSERVATIONS.

INZ001>003-010>013-019-020-271800-
NORTHWEST INDIANA

CITY           SKY/WX    TMP DP  RH WIND       PRES   REMARKS
GARY /AIRPORT/ PTSUNNY   77  63  61 NE9       30.15S
KNOX *+        SUNNY     76  62  63 NE5       30.13S
MONTICELLO +   SUNNY     79  69  71 CALM      30.11F
VALPARAISO     SUNNY     77  62  59 VRB5      30.15R

$$

LMZ046-743>745-271800-
SOUTHERN LAKE MICHIGAN

STATION/POSITION TIME  TEMP WIND        PRES
                       AIR  DIR/SP/G
                 (UTC) (F)  (DEG/KT/KT) (MB)
MICHIGAN CITY    1600   70  360/ 10/ 11   N/A

$$

INZ004-005-014>016-021>024-271800-
NORTH CENTRAL INDIANA

CITY           SKY/WX    TMP DP  RH WIND       PRES   REMARKS
ELKHART        SUNNY     75  59  57 CALM      30.14F
GOSHEN         SUNNY     78  63  59 VRB5      30.13F
SOUTH BEND     SUNNY     77  62  59 N8        30.14F
WARSAW +       SUNNY     75  63  64 CALM      30.13S

$$

INZ006>009-017-018-025>027-271800-
NORTHEAST INDIANA

CITY           SKY/WX    TMP DP  RH WIND       PRES   REMARKS
ANGOLA *+      SUNNY     79  63  57 VRB6      30.12F
FORT WAYNE     PTSUNNY   80  66  62 VRB3      30.12S

$$

INZ028-029-035-036-043>045-051>053-271800-
WEST CENTRAL INDIANA

CITY           SKY/WX    TMP DP  RH WIND       PRES   REMARKS
GREENCASTLE +  PTSUNNY   81  70  69 CALM      30.12F
LAFAYETTE      PTSUNNY   79  71  76 CALM      30.11S
TERRE HAUTE    SUNNY     85  71  63 CALM      30.11F

$$

INZ030>032-037>040-046>048-054>057-064-065-271800-
CENTRAL INDIANA

CITY           SKY/WX    TMP DP  RH WIND       PRES   REMARKS
ANDERSON       MOSUNNY   82  70  65 CALM      30.12F
COLUMBUS       MOSUNNY   84  72  65 CALM      30.11F
FRANKFORT +    MOSUNNY   80  73  77 CALM      30.13F
INDIANAPOLIS   MOSUNNY   85  67  54 CALM      30.11S
-EAGLE CREEK   SUNNY     84  70  62 NW8       30.11S
KOKOMO *+      PTSUNNY   81  70  69 CALM      30.11F
MT COMFORT *+  MOSUNNY   84  72  65 N5        30.12S
SHELBYVILLE    SUNNY     85  71  63 N3        30.11S

$$

INZ033-034-041-042-049-050-058-059-271800-
EAST CENTRAL INDIANA

CITY           SKY/WX    TMP DP  RH WIND       PRES   REMARKS
MUNCIE         SUNNY     81  71  71 CALM      30.11F

$$

INZ060-061-067>069-081>083-085>088-271800-
SOUTHWEST INDIANA

CITY           SKY/WX    TMP DP  RH WIND       PRES   REMARKS
EVANSVILLE     MOSUNNY   91  72  53 NW3       30.10F HX  98

$$

INZ062-063-066-070>080-084-089>092-271800-
SOUTH CENTRAL AND SOUTHEAST INDIANA

CITY           SKY/WX    TMP DP  RH WIND       PRES   REMARKS
BLOOMINGTON    SUNNY     87  70  56 VRB3      30.11F

$$



USA.gov is the U.S. government's official web portal to all federal, state and local government web resources and services.